Flag for U.S.A. Weather past 2 weeks in Jefferson City, Missouri, U.S.A.

Now
78 °F

Clear.


Feels Like: 81 °F
Forecast: 74 / 87 °F
Wind: No wind

Location: Jefferson City Memorial Airport

Current Time: Jul 29, 2015 at 5:07:00 AM

Latest Report: Jul 29, 2015 at 3:53 AM


Visibility: 7 mi

Pressure: 29.94 "Hg

Humidity: 90%

Dew point: 75 °F

Location of Jefferson CityLocation

Historic Weather in Jefferson City — Graph

°F

Jefferson City temperature yesterday

Maximum temperature yesterday: 94 °F (at 1:53 PM)
Minimum temperature yesterday: 74 °F (at 3:53 AM)
Average temperature yesterday: 85 °F

Past Weeks' High & Low Weather Summary

 TemperatureHumidityPressure
High94 °F (Jul 14, 4:53 PM)97% (Jul 20, 4:53 AM)29.99 "Hg (Jul 20, 4:53 AM)
Low67 °F (Jul 22, 12:53 AM)46% (Jul 14, 5:53 PM)29.68 "Hg (Jul 14, 3:53 AM)
Average81 °F75%29.86 "Hg
* Reported Jul 14 3:53 AM — Jul 29 3:53 AM, Jefferson City, Weather by CustomWeather, © 2015

Note: Actual official high and low records may vary slightly from our data, if they occured in-between our weather recording intervals... More about our weather records

Advertising

Jefferson City weather history for previous 24 hours

 ConditionsComfort  
Time TempWeatherWind HumidityBarometerVisibility
3:53 AM
Wed, Jul 29
78 °FClear.No wind90%29.94 "Hg7 mi
2:53 AM79 °FClear.No wind90%29.91 "Hg8 mi
1:53 AM80 °FClear.No wind87%29.92 "Hg9 mi
12:53 AM81 °FClear.3 mph85%29.90 "Hg9 mi
11:53 PM
Tue, Jul 28
83 °FClear.5 mph79%29.91 "Hg10 mi
10:53 PM83 °FClear.No wind79%29.90 "Hg10 mi
9:53 PM83 °FClear.No wind85%29.88 "Hg9 mi
8:53 PM87 °FSunny.3 mph72%29.87 "Hg10 mi
7:53 PM91 °FSunny.5 mph60%29.85 "Hg10 mi
6:53 PM93 °FSunny.6 mph54%29.84 "Hg10 mi
5:53 PM93 °FSunny.10 mph54%29.85 "Hg10 mi
4:53 PM94 °FScattered clouds.12 mph52%29.85 "Hg10 mi
3:53 PM94 °FPassing clouds.10 mph52%29.87 "Hg10 mi
2:53 PM94 °FPassing clouds.7 mph52%29.89 "Hg10 mi
1:53 PM94 °FPassing clouds.N/A52%29.88 "Hg10 mi
12:53 PM93 °FPassing clouds.8 mph56%29.90 "Hg10 mi
11:53 AM92 °FSunny.No wind58%29.91 "Hg10 mi
10:53 AM90 °FSunny.7 mph61%29.90 "Hg10 mi
9:53 AM86 °FSunny.5 mph70%29.90 "Hg10 mi
8:53 AM83 °FSunny.5 mph77%29.90 "Hg10 mi
7:53 AM78 °FSunny.3 mph87%29.89 "Hg10 mi
6:53 AM75 °FClear.3 mph90%29.89 "Hg8 mi
5:53 AM74 °FClear.3 mph94%29.87 "Hg10 mi
Weather by CustomWeather, © 2015

See weather overviewHow to use our weather pages